When you browse on this site, cookies collect data to enhance your experience and personalize the content and advertising you see.
Visit our Privacy Policy to learn more. By continuing to use the site, you agree to this use of cookies and data.
  • Em Portugal
  • Lista de países
  • Para 7 dias
  • Temperatura da água
  • Mapas de satélite
  • Mapa do tempo
  • Widgets de tempo
  • user-avatar
    Iniciar Sessão

    Previsão horária em Vishnevka

    Hoje, 26 Abril, Sexta-feira

    Tempo Temperatura Precipitação Vento Pressão Humidade
    00:00 +10°C° 0 mm 2 m/s 755 mmHg 80%
    01:00 +9°C° 0 mm 2 m/s 756 mmHg 81%
    02:00 +9°C° 0 mm 2 m/s 756 mmHg 82%
    03:00 +8°C° 0 mm 2 m/s 756 mmHg 82%
    04:00 +8°C° 0 mm 2 m/s 756 mmHg 79%
    05:00 +8°C° 0 mm 2 m/s 756 mmHg 75%
    06:00 +8°C° 0 mm 2 m/s 756 mmHg 72%
    07:00 +10°C° 0 mm 2 m/s 756 mmHg 63%
    08:00 +11°C° 0 mm 3 m/s 756 mmHg 55%
    09:00 +12°C° 0 mm 3 m/s 757 mmHg 47%
    10:00 +13°C° 0 mm 3 m/s 757 mmHg 45%
    11:00 +13°C° 0 mm 3 m/s 757 mmHg 42%
    12:00 +14°C° 0 mm 3 m/s 757 mmHg 40%
    13:00 +14°C° 0 mm 4 m/s 756 mmHg 39%
    14:00 +14°C° 0 mm 4 m/s 756 mmHg 38%
    15:00 +15°C° 0 mm 4 m/s 756 mmHg 37%
    16:00 +14°C° 0 mm 3 m/s 756 mmHg 41%
    17:00 +14°C° 0 mm 3 m/s 756 mmHg 44%
    18:00 +14°C° 0 mm 2 m/s 756 mmHg 47%
    19:00 +13°C° 0 mm 2 m/s 756 mmHg 51%
    20:00 +12°C° 0 mm 2 m/s 756 mmHg 55%
    21:00 +10°C° 0 mm 2 m/s 756 mmHg 59%
    22:00 +9°C° 0 mm 2 m/s 756 mmHg 62%
    23:00 +10°C° 0 mm 1 m/s 756 mmHg 65%

    Amanhã, 27 Abril, Sábado

    Tempo Temperatura Precipitação Vento Pressão Humidade
    00:00 +9°C° 0 mm 1 m/s 756 mmHg 68%
    01:00 +9°C° 0 mm 1 m/s 756 mmHg 69%
    02:00 +7°C° 0 mm 0 m/s 756 mmHg 70%
    03:00 +7°C° 0 mm 0 m/s 756 mmHg 70%
    04:00 +7°C° 0 mm 0 m/s 756 mmHg 69%
    05:00 +9°C° 0 mm 1 m/s 756 mmHg 69%
    06:00 +9°C° 0 mm 1 m/s 756 mmHg 68%
    07:00 +10°C° 0 mm 2 m/s 755 mmHg 62%
    08:00 +13°C° 0 mm 2 m/s 755 mmHg 56%
    09:00 +15°C° 0 mm 2 m/s 755 mmHg 50%
    10:00 +16°C° 0 mm 3 m/s 754 mmHg 45%
    11:00 +17°C° 0 mm 4 m/s 754 mmHg 40%
    12:00 +17°C° 0 mm 5 m/s 753 mmHg 34%
    13:00 +19°C° 0 mm 5 m/s 753 mmHg 34%
    14:00 +19°C° 0 mm 5 m/s 752 mmHg 33%
    15:00 +19°C° 0 mm 5 m/s 752 mmHg 32%
    16:00 +19°C° 0 mm 4 m/s 751 mmHg 36%
    17:00 +18°C° 0 mm 3 m/s 750 mmHg 40%
    18:00 +17°C° 0 mm 2 m/s 750 mmHg 44%
    19:00 +16°C° 0 mm 2 m/s 750 mmHg 46%
    20:00 +15°C° 0 mm 2 m/s 749 mmHg 49%
    21:00 +14°C° 0 mm 2 m/s 749 mmHg 51%
    22:00 +12°C° 0 mm 3 m/s 748 mmHg 58%
    23:00 +12°C° 0 mm 3 m/s 748 mmHg 64%

    Depois de amanhã, 28 Abril, Domingo

    Tempo Temperatura Precipitação Vento Pressão Humidade
    00:00 +11°C° 0 mm 4 m/s 747 mmHg 70%
    01:00 +11°C° 0 mm 4 m/s 747 mmHg 72%
    02:00 +11°C° 0 mm 4 m/s 746 mmHg 73%
    03:00 +10°C° 0 mm 5 m/s 746 mmHg 75%
    04:00 +10°C° 0.3 mm 5 m/s 745 mmHg 75%
    05:00 +10°C° 0.3 mm 5 m/s 745 mmHg 75%
    06:00 +12°C° 0.3 mm 5 m/s 745 mmHg 75%
    07:00 +13°C° 0.1 mm 5 m/s 745 mmHg 73%
    08:00 +13°C° 0.1 mm 5 m/s 745 mmHg 72%
    09:00 +14°C° 0.1 mm 6 m/s 746 mmHg 70%
    10:00 +10°C° 0.6 mm 6 m/s 746 mmHg 73%
    11:00 +7°C° 0.6 mm 6 m/s 746 mmHg 76%
    12:00 +3°C° 0.6 mm 7 m/s 747 mmHg 80%
    13:00 +4°C° 0.6 mm 6 m/s 748 mmHg 77%
    14:00 +4°C° 0.6 mm 6 m/s 748 mmHg 74%
    15:00 +5°C° 0.6 mm 5 m/s 749 mmHg 71%
    16:00 +5°C° 0 mm 5 m/s 749 mmHg 67%
    17:00 +4°C° 0 mm 6 m/s 750 mmHg 63%
    18:00 +4°C° 0 mm 6 m/s 750 mmHg 60%
    19:00 +3°C° 0 mm 5 m/s 751 mmHg 64%
    20:00 +3°C° 0 mm 4 m/s 752 mmHg 68%
    21:00 +2°C° 0 mm 3 m/s 752 mmHg 72%
    22:00 +2°C° 0 mm 3 m/s 752 mmHg 72%
    23:00 0°C° 0 mm 4 m/s 753 mmHg 73%

    29 Abril, Segunda-feira

    Tempo Temperatura Precipitação Vento Pressão Humidade
    00:00 0°C° 0 mm 4 m/s 753 mmHg 73%
    01:00 -1°C° 0 mm 4 m/s 753 mmHg 73%
    02:00 -2°C° 0 mm 4 m/s 754 mmHg 73%
    03:00 -2°C° 0 mm 4 m/s 754 mmHg 72%
    04:00 -2°C° 0 mm 4 m/s 754 mmHg 72%
    05:00 -2°C° 0 mm 5 m/s 755 mmHg 73%
    06:00 -2°C° 0 mm 5 m/s 755 mmHg 73%
    07:00 -2°C° 0.1 mm 6 m/s 755 mmHg 66%
    08:00 -1°C° 0.1 mm 6 m/s 755 mmHg 60%
    09:00 +2°C° 0.1 mm 7 m/s 756 mmHg 53%
    10:00 +2°C° 0.1 mm 6 m/s 756 mmHg 49%
    11:00 +3°C° 0.1 mm 6 m/s 756 mmHg 44%
    12:00 +3°C° 0.1 mm 6 m/s 756 mmHg 40%
    13:00 +3°C° 0 mm 6 m/s 756 mmHg 39%
    14:00 +3°C° 0 mm 6 m/s 756 mmHg 38%
    15:00 +3°C° 0 mm 5 m/s 756 mmHg 37%
    16:00 +3°C° 0 mm 5 m/s 756 mmHg 39%
    17:00 +2°C° 0 mm 5 m/s 756 mmHg 41%
    18:00 +2°C° 0 mm 5 m/s 757 mmHg 42%
    19:00 +1°C° 0 mm 4 m/s 757 mmHg 46%
    20:00 +1°C° 0 mm 3 m/s 757 mmHg 50%
    21:00 0°C° 0 mm 3 m/s 757 mmHg 54%
    22:00 -1°C° 0 mm 2 m/s 758 mmHg 56%
    23:00 -1°C° 0 mm 2 m/s 758 mmHg 57%

    30 Abril, Terça-feira

    Tempo Temperatura Precipitação Vento Pressão Humidade
    00:00 -2°C° 0 mm 2 m/s 758 mmHg 59%
    01:00 -2°C° 0 mm 2 m/s 758 mmHg 58%
    02:00 -2°C° 0 mm 2 m/s 758 mmHg 58%
    03:00 -2°C° 0 mm 2 m/s 758 mmHg 58%
    04:00 -1°C° 0 mm 2 m/s 758 mmHg 54%
    05:00 -1°C° 0 mm 2 m/s 758 mmHg 51%
    06:00 +1°C° 0 mm 2 m/s 759 mmHg 47%
    07:00 +2°C° 0 mm 2 m/s 758 mmHg 43%
    08:00 +3°C° 0 mm 2 m/s 758 mmHg 38%
    09:00 +4°C° 0 mm 2 m/s 758 mmHg 33%
    10:00 +5°C° 0 mm 2 m/s 758 mmHg 32%
    11:00 +6°C° 0 mm 2 m/s 758 mmHg 31%
    12:00 +6°C° 0 mm 2 m/s 757 mmHg 30%
    13:00 +7°C° 0 mm 2 m/s 757 mmHg 29%
    14:00 +7°C° 0 mm 2 m/s 757 mmHg 29%
    15:00 +8°C° 0 mm 2 m/s 757 mmHg 29%
    16:00 +7°C° 0 mm 2 m/s 756 mmHg 32%
    17:00 +7°C° 0 mm 2 m/s 756 mmHg 35%
    18:00 +7°C° 0 mm 2 m/s 756 mmHg 39%
    19:00 +5°C° 0 mm 2 m/s 756 mmHg 41%
    20:00 +5°C° 0 mm 1 m/s 756 mmHg 44%
    21:00 +3°C° 0 mm 0 m/s 756 mmHg 46%
    22:00 +4°C° 0 mm 1 m/s 756 mmHg 47%
    23:00 +3°C° 0 mm 1 m/s 756 mmHg 48%

    1 Maio, Quarta-feira

    Tempo Temperatura Precipitação Vento Pressão Humidade
    00:00 +3°C° 0 mm 1 m/s 756 mmHg 48%
    01:00 +3°C° 0 mm 1 m/s 756 mmHg 49%
    02:00 +2°C° 0 mm 1 m/s 756 mmHg 50%
    03:00 +2°C° 0 mm 1 m/s 756 mmHg 50%
    04:00 +3°C° 0 mm 1 m/s 755 mmHg 49%
    05:00 +3°C° 0 mm 1 m/s 755 mmHg 47%
    06:00 +4°C° 0 mm 1 m/s 755 mmHg 45%
    07:00 +6°C° 0 mm 1 m/s 755 mmHg 41%
    08:00 +7°C° 0 mm 1 m/s 755 mmHg 37%
    09:00 +8°C° 0 mm 2 m/s 755 mmHg 34%
    10:00 +9°C° 0 mm 2 m/s 755 mmHg 32%
    11:00 +9°C° 0 mm 2 m/s 754 mmHg 31%
    12:00 +10°C° 0 mm 2 m/s 754 mmHg 30%
    13:00 +10°C° 0 mm 2 m/s 754 mmHg 30%
    14:00 +12°C° 0 mm 2 m/s 753 mmHg 29%
    15:00 +12°C° 0 mm 1 m/s 753 mmHg 29%
    16:00 +12°C° 0 mm 1 m/s 753 mmHg 32%
    17:00 +11°C° 0 mm 1 m/s 753 mmHg 35%
    18:00 +11°C° 0 mm 1 m/s 752 mmHg 38%
    19:00 +10°C° 0 mm 1 m/s 753 mmHg 39%
    20:00 +8°C° 0 mm 1 m/s 753 mmHg 41%
    21:00 +6°C° 0 mm 2 m/s 753 mmHg 42%
    22:00 +6°C° 0 mm 2 m/s 753 mmHg 44%
    23:00 +5°C° 0 mm 2 m/s 753 mmHg 45%
    Mostrar mais